This is the latest recevied weather packets stored in our database for station/object K6TTR. If no packets are shown the sender has not sent any weather packets the latest 10 day(s).
| Time | Temp. | Humidity | Pressure | Rain* | Wind** | Luminosity | Snow |
|---|---|---|---|---|---|---|---|
| 1777904924 | 7.78° C | 88% | 1013.9 hPa | 0 mm | - | 30 W/m² | - |
| 1777904612 | 7.78° C | 88% | 1013.9 hPa | 0 mm | - | 23 W/m² | - |
| 1777904316 | 7.78° C | 88% | 1013.9 hPa | 0 mm | - | 16 W/m² | - |
| 1777904019 | 7.78° C | 89% | 1014 hPa | 0 mm | - | 16 W/m² | - |
| 1777903727 | 7.78° C | 89% | 1014 hPa | 0 mm | - | 23 W/m² | - |
| 1777903413 | 7.78° C | 89% | 1013.9 hPa | 0 mm | - | 28 W/m² | - |
| 1777903117 | 7.78° C | 89% | 1013.9 hPa | 0 mm | - | 18 W/m² | - |
| 1777902820 | 7.78° C | 89% | 1013.7 hPa | 0 mm | - | 19 W/m² | - |
| 1777902525 | 7.78° C | 89% | 1013.7 hPa | 0 mm | - | 16 W/m² | - |
| 1777902212 | 7.78° C | 89% | 1013.7 hPa | 0 mm | - | 16 W/m² | - |
| 1777901919 | 7.78° C | 89% | 1013.7 hPa | 0 mm | - | 12 W/m² | - |
| 1777901624 | 7.78° C | 89% | 1013.7 hPa | 0 mm | - | 12 W/m² | - |
| 1777901328 | 7.78° C | 89% | 1013.8 hPa | 0 mm | - | 9 W/m² | - |
| 1777901013 | 7.78° C | 89% | 1013.8 hPa | 0 mm | - | 7 W/m² | - |
| 1777900717 | 7.78° C | 89% | 1013.8 hPa | 0 mm | - | 5 W/m² | - |
| 1777900421 | 7.78° C | 89% | 1013.8 hPa | 0 mm | - | 0 W/m² | - |
| 1777900127 | 7.78° C | 89% | 1013.5 hPa | 0 mm | - | 0 W/m² | - |
| 1777899813 | 7.78° C | 89% | 1013.4 hPa | 0 mm | - | 0 W/m² | - |
| 1777899520 | 7.78° C | 89% | 1013.4 hPa | 0 mm | - | 0 W/m² | - |
| 1777899226 | 7.78° C | 90% | 1013.2 hPa | 0 mm | - | 0 W/m² | - |
| 1777898911 | 7.78° C | 90% | 1013.2 hPa | 0 mm | - | 0 W/m² | - |
| 1777898618 | 7.78° C | 90% | 1013.2 hPa | 0 mm | - | 0 W/m² | - |
| 1777898324 | 7.78° C | 90% | 1013.3 hPa | 0 mm | - | 0 W/m² | - |
| 1777898012 | 7.78° C | 90% | 1013.2 hPa | 0 mm | - | 0 W/m² | - |
| 1777897718 | 7.78° C | 90% | 1013 hPa | 0 mm | - | 0 W/m² | - |
* Rain latest hour (hover to see other rain measurements)
** Current wind speed in m/s (hover to see current wind gust speed)